QPF
0.00 0.00 0.00 0.00 0.01 0.01 0.01 0.01 0.01 0.01 0.02 0.02 0.01 0.01 0.01 0.01 0.02 0.02 0.01 0.00 0.00 0.02 0.03 0.06 0.05 0.03 0.02 0.02 0.02 0.02 0.03 0.03 0.04 0.05 0.05 0.04 0.06 0.06 0.06 0.07 0.09 0.08 0.06 0.04 0.04 0.03 0.02 0.03 0.04
0.00 0.00 0.00 0.00 0.02 0.02 0.01 0.01 0.00 0.00 0.01 0.01 0.01 0.01 0.01 0.01 0.01 0.01 0.01 0.00 0.00 0.01 0.04 0.08 0.06 0.05 0.02 0.02 0.02 0.02 0.02 0.02 0.03 0.04 0.05 0.04 0.06 0.07 0.06 0.06 0.06 0.06 0.06 0.06 0.05 0.05 0.04 0.04 0.05
0.00 0.00 0.00 0.00 0.01 0.01 0.01 0.01 0.00 0.00 0.01 0.01 0.02 0.02 0.02 0.01 0.01 0.01 0.01 0.01 0.01 0.01 0.04 0.05 0.03 0.02 0.02 0.02 0.03 0.03 0.02 0.02 0.02 0.03 0.04 0.05 0.04 0.04 0.04 0.05 0.05 0.04 0.06 0.07 0.05 0.05 0.06 0.05 0.06
0.00 0.00 0.00 0.00 0.00 0.01 0.01 0.01 0.00 0.01 0.01 0.02 0.02 0.02 0.02 0.01 0.00 0.00 0.00 0.01 0.02 0.01 0.02 0.03 0.02 0.02 0.02 0.02 0.03 0.03 0.03 0.03 0.03 0.03 0.03 0.03 0.03 0.03 0.03 0.03 0.03 0.03 0.04 0.05 0.06 0.05 0.06 0.06 0.06
0.00 0.00 0.00 0.00 0.00 0.01 0.01 0.00 0.00 0.01 0.01 0.01 0.02 0.02 0.02 0.01 0.01 0.01 0.01 0.02 0.02 0.01 0.02 0.03 0.02 0.02 0.03 0.03 0.03 0.03 0.03 0.02 0.03 0.03 0.03 0.03 0.02 0.03 0.03 0.03 0.03 0.03 0.03 0.04 0.05 0.06 0.07 0.07 0.08
0.00 0.00 0.00 0.00 0.00 0.00 0.01 0.00 0.00 0.00 0.01 0.01 0.01 0.02 0.02 0.02 0.02 0.02 0.02 0.02 0.02 0.02 0.02 0.02 0.03 0.03 0.03 0.04 0.04 0.03 0.03 0.02 0.02 0.03 0.03 0.03 0.03 0.03 0.04 0.03 0.04 0.04 0.05 0.05 0.07 0.06 0.06 0.07 0.07
0.00 0.00 0.00 0.00 0.00 0.00 0.00 0.00 0.00 0.00 0.00 0.01 0.01 0.01 0.02 0.02 0.03 0.03 0.03 0.03 0.04 0.03 0.02 0.02 0.03 0.03 0.03 0.03 0.03 0.03 0.03 0.03 0.03 0.03 0.03 0.03 0.03 0.03 0.03 0.03 0.03 0.03 0.04 0.06 0.08 0.07 0.05 0.05 0.06
0.00 0.00 0.00 0.00 0.00 0.00 0.00 0.00 0.00 0.00 0.01 0.01 0.01 0.01 0.01 0.02 0.03 0.03 0.06 0.08 0.06 0.05 0.03 0.02 0.03 0.04 0.04 0.03 0.03 0.03 0.03 0.04 0.04 0.03 0.03 0.02 0.01 0.01 0.02 0.02 0.03 0.02 0.03 0.04 0.06 0.06 0.06 0.05 0.05
0.00 0.00 0.00 0.00 0.00 0.00 0.00 0.01 0.01 0.01 0.01 0.02 0.02 0.02 0.02 0.02 0.02 0.04 0.08 0.09 0.07 0.05 0.05 0.04 0.03 0.03 0.04 0.03 0.03 0.03 0.03 0.03 0.04 0.03 0.02 0.02 0.01 0.01 0.02 0.02 0.03 0.03 0.03 0.03 0.04 0.06 0.07 0.06 0.05
0.00 0.00 0.00 0.00 0.00 0.00 0.00 0.00 0.01 0.01 0.01 0.01 0.01 0.02 0.02 0.02 0.03 0.03 0.06 0.07 0.06 0.06 0.05 0.04 0.03 0.02 0.03 0.03 0.04 0.03 0.02 0.02 0.02 0.02 0.02 0.01 0.01 0.01 0.01 0.02 0.02 0.03 0.03 0.03 0.04 0.04 0.06 0.06 0.04
0.00 0.00 0.00 0.00 0.00 0.00 0.00 0.00 0.00 0.01 0.01 0.01 0.01 0.01 0.02 0.02 0.02 0.03 0.04 0.05 0.06 0.06 0.04 0.05 0.04 0.03 0.03 0.03 0.03 0.03 0.02 0.01 0.02 0.01 0.01 0.01 0.02 0.02 0.02 0.02 0.03 0.03 0.03 0.03 0.04 0.04 0.04 0.04 0.04
0.00 0.00 0.00 0.00 0.00 0.00 0.00 0.00 0.01 0.01 0.01 0.01 0.01 0.02 0.03 0.03 0.03 0.03 0.03 0.05 0.06 0.04 0.04 0.05 0.05 0.03 0.03 0.04 0.03 0.02 0.01 0.01 0.01 0.00 0.01 0.01 0.01 0.02 0.05 0.06 0.03 0.03 0.02 0.02 0.02 0.03 0.04 0.04 0.04
0.00 0.00 0.00 0.00 0.00 0.00 0.01 0.01 0.01 0.01 0.01 0.01 0.02 0.04 0.07 0.08 0.07 0.05 0.05 0.06 0.06 0.05 0.04 0.04 0.04 0.05 0.06 0.05 0.04 0.02 0.01 0.01 0.00 0.00 0.01 0.01 0.01 0.03 0.05 0.04 0.03 0.02 0.02 0.02 0.02 0.02 0.04 0.03 0.03
0.00 0.00 0.00 0.00 0.00 0.01 0.01 0.01 0.01 0.01 0.02 0.03 0.03 0.06 0.09 0.07 0.05 0.05 0.06 0.06 0.05 0.04 0.03 0.03 0.03 0.04 0.05 0.06 0.06 0.03 0.02 0.01 0.02 0.02 0.02 0.01 0.01 0.01 0.01 0.02 0.01 0.02 0.03 0.03 0.02 0.03 0.03 0.03 0.02
0.00 0.00 0.00 0.00 0.00 0.00 0.00 0.01 0.01 0.01 0.02 0.02 0.02 0.03 0.06 0.05 0.04 0.04 0.04 0.03 0.03 0.03 0.02 0.02 0.02 0.04 0.07 0.06 0.05 0.03 0.02 0.03 0.02 0.03 0.03 0.02 0.02 0.02 0.02 0.01 0.01 0.01 0.03 0.06 0.07 0.05 0.04 0.03 0.03
0.00 0.01 0.00 0.00 0.00 0.00 0.00 0.01 0.01 0.01 0.01 0.02 0.02 0.03 0.05 0.06 0.05 0.04 0.03 0.03 0.03 0.02 0.02 0.02 0.01 0.02 0.07 0.09 0.08 0.04 0.03 0.03 0.03 0.04 0.04 0.04 0.04 0.03 0.02 0.02 0.01 0.01 0.02 0.04 0.08 0.08 0.06 0.05 0.04
0.01 0.02 0.00 0.00 0.00 0.00 0.01 0.01 0.01 0.01 0.01 0.02 0.02 0.03 0.03 0.07 0.07 0.05 0.04 0.03 0.04 0.04 0.03 0.02 0.02 0.02 0.03 0.05 0.08 0.07 0.06 0.04 0.04 0.04 0.04 0.04 0.05 0.05 0.04 0.03 0.02 0.02 0.02 0.02 0.05 0.07 0.06 0.06 0.06
0.02 0.04 0.01 0.01 0.01 0.01 0.01 0.01 0.01 0.01 0.01 0.02 0.02 0.03 0.04 0.06 0.08 0.07 0.05 0.04 0.04 0.05 0.05 0.04 0.03 0.03 0.04 0.04 0.05 0.06 0.08 0.07 0.05 0.04 0.03 0.03 0.04 0.04 0.05 0.05 0.04 0.02 0.02 0.02 0.03 0.06 0.06 0.06 0.06
0.01 0.03 0.02 0.01 0.01 0.01 0.01 0.01 0.01 0.01 0.02 0.02 0.03 0.04 0.05 0.07 0.07 0.08 0.07 0.06 0.04 0.04 0.05 0.05 0.05 0.05 0.05 0.04 0.03 0.04 0.05 0.08 0.06 0.04 0.03 0.02 0.02 0.03 0.03 0.03 0.03 0.02 0.02 0.02 0.03 0.04 0.04 0.05 0.05
0.01 0.01 0.01 0.01 0.01 0.01 0.01 0.01 0.01 0.02 0.02 0.02 0.03 0.04 0.03 0.04 0.05 0.06 0.07 0.06 0.05 0.04 0.04 0.06 0.05 0.06 0.05 0.05 0.03 0.04 0.04 0.06 0.05 0.03 0.02 0.02 0.02 0.02 0.02 0.02 0.02 0.02 0.02 0.04 0.04 0.03 0.03 0.03 0.04
0.01 0.01 0.01 0.01 0.01 0.02 0.01 0.01 0.01 0.01 0.02 0.02 0.03 0.03 0.01 0.02 0.03 0.04 0.05 0.05 0.04 0.04 0.05 0.05 0.06 0.07 0.06 0.05 0.03 0.03 0.03 0.04 0.03 0.02 0.02 0.01 0.01 0.01 0.01 0.01 0.01 0.01 0.01 0.02 0.03 0.03 0.03 0.03 0.03
0.01 0.01 0.01 0.00 0.00 0.01 0.02 0.02 0.01 0.01 0.02 0.01 0.01 0.02 0.02 0.01 0.01 0.01 0.01 0.02 0.03 0.04 0.06 0.05 0.06 0.07 0.07 0.05 0.03 0.02 0.02 0.01 0.01 0.01 0.01 0.01 0.01 0.01 0.01 0.01 0.01 0.01 0.01 0.01 0.02 0.02 0.02 0.03 0.02
0.01 0.01 0.01 0.01 0.00 0.00 0.01 0.02 0.02 0.01 0.01 0.01 0.02 0.02 0.02 0.01 0.01 0.01 0.02 0.02 0.03 0.04 0.05 0.06 0.06 0.07 0.07 0.05 0.04 0.02 0.01 0.01 0.02 0.01 0.01 0.01 0.01 0.01 0.02 0.01 0.01 0.01 0.01 0.01 0.01 0.02 0.01 0.02 0.02
0.01 0.01 0.01 0.01 0.01 0.01 0.01 0.01 0.01 0.01 0.01 0.01 0.02 0.02 0.02 0.01 0.02 0.02 0.03 0.05 0.05 0.05 0.04 0.04 0.07 0.07 0.07 0.05 0.04 0.03 0.02 0.02 0.02 0.03 0.02 0.02 0.02 0.02 0.02 0.02 0.01 0.01 0.01 0.01 0.02 0.02 0.02 0.02 0.02
0.01 0.01 0.01 0.01 0.01 0.01 0.01 0.01 0.01 0.01 0.01 0.01 0.01 0.02 0.02 0.02 0.03 0.04 0.04 0.05 0.07 0.05 0.04 0.03 0.04 0.05 0.05 0.04 0.03 0.03 0.04 0.03 0.02 0.02 0.02 0.02 0.01 0.01 0.02 0.01 0.01 0.01 0.01 0.01 0.02 0.02 0.03 0.03 0.03
0.01 0.01 0.01 0.01 0.01 0.01 0.01 0.01 0.01 0.01 0.01 0.01 0.01 0.01 0.01 0.02 0.03 0.03 0.04 0.05 0.05 0.04 0.04 0.03 0.03 0.04 0.04 0.03 0.03 0.03 0.04 0.04 0.03 0.03 0.02 0.01 0.01 0.02 0.02 0.01 0.01 0.01 0.01 0.02 0.02 0.02 0.04 0.04 0.03
0.01 0.01 0.01 0.01 0.01 0.01 0.00 0.01 0.01 0.01 0.00 0.00 0.01 0.01 0.01 0.02 0.03 0.04 0.04 0.04 0.04 0.05 0.05 0.04 0.03 0.03 0.03 0.03 0.03 0.03 0.04 0.05 0.04 0.02 0.02 0.01 0.02 0.02 0.03 0.02 0.01 0.01 0.01 0.02 0.02 0.02 0.03 0.04 0.04
0.01 0.01 0.01 0.01 0.01 0.01 0.00 0.01 0.01 0.01 0.01 0.01 0.01 0.02 0.02 0.02 0.03 0.03 0.03 0.04 0.05 0.05 0.05 0.04 0.03 0.04 0.03 0.03 0.03 0.03 0.04 0.04 0.05 0.03 0.03 0.02 0.02 0.02 0.02 0.01 0.01 0.01 0.02 0.02 0.03 0.03 0.03 0.04 0.04
0.01 0.01 0.01 0.01 0.01 0.01 0.01 0.01 0.01 0.01 0.01 0.01 0.01 0.01 0.03 0.03 0.03 0.03 0.03 0.04 0.04 0.04 0.03 0.03 0.03 0.03 0.04 0.03 0.03 0.02 0.03 0.04 0.06 0.04 0.03 0.02 0.02 0.01 0.01 0.01 0.01 0.01 0.01 0.02 0.04 0.04 0.04 0.04 0.04
0.02 0.02 0.02 0.01 0.01 0.01 0.01 0.02 0.01 0.01 0.01 0.01 0.00 0.01 0.02 0.02 0.01 0.02 0.02 0.03 0.02 0.02 0.03 0.03 0.03 0.02 0.03 0.03 0.03 0.03 0.04 0.05 0.06 0.04 0.03 0.02 0.02 0.01 0.01 0.02 0.01 0.00 0.00 0.01 0.03 0.05 0.05 0.06 0.07
MSLP
1009.91 1010.95 1012.03 1012.95 1013.58 1013.81 1013.63 1013.09 1012.33 1011.50 1010.77 1010.24 1009.96 1009.91 1010.00 1010.13 1010.18 1010.09 1009.83 1009.47 1009.07 1008.74 1008.57 1008.59 1008.81 1009.17 1009.58 1009.96 1010.26 1010.43 1010.51 1010.53 1010.55 1010.62 1010.78 1011.02 1011.29 1011.56 1011.77 1011.90 1011.94 1011.93 1011.91 1011.94 1012.04 1012.23 1012.51 1012.84 1013.17
1010.46 1011.59 1012.66 1013.50 1013.97 1013.98 1013.53 1012.72 1011.69 1010.63 1009.71 1009.06 1008.71 1008.64 1008.76 1008.96 1009.11 1009.14 1009.03 1008.81 1008.57 1008.39 1008.35 1008.48 1008.78 1009.18 1009.62 1010.02 1010.32 1010.51 1010.60 1010.65 1010.70 1010.80 1010.97 1011.20 1011.45 1011.67 1011.81 1011.87 1011.84 1011.78 1011.72 1011.73 1011.83 1012.04 1012.33 1012.68 1013.03
1011.02 1012.16 1013.17 1013.89 1014.17 1013.96 1013.29 1012.27 1011.06 1009.85 1008.84 1008.12 1007.74 1007.67 1007.81 1008.05 1008.27 1008.38 1008.38 1008.29 1008.18 1008.13 1008.20 1008.41 1008.78 1009.22 1009.68 1010.08 1010.38 1010.57 1010.68 1010.75 1010.82 1010.94 1011.11 1011.32 1011.53 1011.69 1011.78 1011.77 1011.69 1011.58 1011.51 1011.51 1011.62 1011.84 1012.15 1012.51 1012.87
1011.54 1012.63 1013.53 1014.09 1014.20 1013.81 1012.98 1011.83 1010.54 1009.29 1008.26 1007.55 1007.18 1007.13 1007.28 1007.54 1007.78 1007.95 1008.01 1008.00 1007.98 1008.02 1008.17 1008.45 1008.85 1009.30 1009.76 1010.14 1010.43 1010.62 1010.73 1010.81 1010.90 1011.03 1011.20 1011.39 1011.56 1011.68 1011.71 1011.65 1011.54 1011.41 1011.32 1011.33 1011.45 1011.68 1012.00 1012.36 1012.72
1011.98 1012.98 1013.74 1014.14 1014.08 1013.57 1012.66 1011.48 1010.21 1009.02 1008.06 1007.41 1007.09 1007.05 1007.21 1007.46 1007.70 1007.87 1007.96 1007.99 1008.03 1008.12 1008.32 1008.63 1009.03 1009.46 1009.88 1010.23 1010.49 1010.66 1010.77 1010.85 1010.95 1011.09 1011.26 1011.43 1011.58 1011.66 1011.65 1011.57 1011.43 1011.30 1011.23 1011.24 1011.37 1011.61 1011.92 1012.27 1012.60
1012.31 1013.18 1013.79 1014.04 1013.86 1013.28 1012.37 1011.25 1010.08 1009.02 1008.18 1007.64 1007.39 1007.38 1007.53 1007.76 1007.96 1008.11 1008.20 1008.25 1008.31 1008.43 1008.64 1008.94 1009.31 1009.70 1010.06 1010.36 1010.57 1010.71 1010.80 1010.89 1011.00 1011.14 1011.31 1011.48 1011.61 1011.67 1011.65 1011.55 1011.42 1011.30 1011.23 1011.26 1011.40 1011.63 1011.92 1012.23 1012.52
1012.51 1013.24 1013.69 1013.80 1013.55 1012.95 1012.09 1011.10 1010.09 1009.20 1008.52 1008.09 1007.91 1007.93 1008.07 1008.26 1008.42 1008.54 1008.61 1008.67 1008.74 1008.88 1009.08 1009.36 1009.68 1010.01 1010.30 1010.52 1010.68 1010.78 1010.86 1010.94 1011.06 1011.22 1011.40 1011.57 1011.69 1011.74 1011.72 1011.62 1011.49 1011.38 1011.33 1011.37 1011.50 1011.71 1011.97 1012.24 1012.48
1012.57 1013.14 1013.45 1013.45 1013.15 1012.57 1011.80 1010.95 1010.12 1009.41 1008.89 1008.57 1008.46 1008.49 1008.61 1008.75 1008.89 1008.98 1009.06 1009.12 1009.22 1009.37 1009.57 1009.82 1010.10 1010.35 1010.56 1010.72 1010.82 1010.89 1010.95 1011.04 1011.18 1011.35 1011.54 1011.71 1011.84 1011.88 1011.85 1011.76 1011.64 1011.54 1011.50 1011.53 1011.65 1011.84 1012.05 1012.27 1012.45
1012.49 1012.92 1013.09 1013.00 1012.65 1012.11 1011.44 1010.73 1010.06 1009.51 1009.12 1008.90 1008.82 1008.85 1008.95 1009.07 1009.19 1009.29 1009.38 1009.49 1009.63 1009.81 1010.02 1010.26 1010.49 1010.69 1010.84 1010.93 1010.99 1011.03 1011.09 1011.19 1011.34 1011.53 1011.73 1011.91 1012.03 1012.07 1012.04 1011.94 1011.83 1011.74 1011.69 1011.72 1011.82 1011.98 1012.15 1012.31 1012.44
1012.29 1012.57 1012.63 1012.45 1012.08 1011.57 1010.98 1010.39 1009.85 1009.42 1009.11 1008.93 1008.87 1008.90 1008.98 1009.10 1009.22 1009.36 1009.51 1009.69 1009.89 1010.12 1010.37 1010.61 1010.82 1010.98 1011.09 1011.14 1011.18 1011.21 1011.28 1011.39 1011.56 1011.76 1011.97 1012.14 1012.26 1012.29 1012.25 1012.15 1012.04 1011.94 1011.89 1011.91 1011.99 1012.11 1012.24 1012.36 1012.44
1012.01 1012.16 1012.10 1011.86 1011.47 1010.97 1010.44 1009.93 1009.47 1009.10 1008.83 1008.67 1008.61 1008.62 1008.70 1008.83 1008.99 1009.19 1009.43 1009.70 1009.99 1010.29 1010.58 1010.84 1011.05 1011.19 1011.28 1011.33 1011.36 1011.40 1011.49 1011.62 1011.81 1012.02 1012.22 1012.39 1012.49 1012.52 1012.46 1012.36 1012.24 1012.14 1012.09 1012.09 1012.15 1012.24 1012.33 1012.41 1012.45
1011.69 1011.73 1011.58 1011.28 1010.86 1010.38 1009.88 1009.40 1008.97 1008.61 1008.35 1008.17 1008.09 1008.10 1008.18 1008.34 1008.57 1008.86 1009.20 1009.57 1009.95 1010.33 1010.67 1010.95 1011.17 1011.32 1011.41 1011.47 1011.52 1011.59 1011.70 1011.86 1012.06 1012.27 1012.47 1012.63 1012.71 1012.72 1012.66 1012.55 1012.43 1012.33 1012.27 1012.26 1012.30 1012.36 1012.43 1012.47 1012.47
1011.41 1011.36 1011.14 1010.79 1010.36 1009.87 1009.37 1008.90 1008.46 1008.08 1007.79 1007.58 1007.47 1007.47 1007.58 1007.79 1008.10 1008.48 1008.92 1009.39 1009.86 1010.29 1010.67 1010.98 1011.21 1011.37 1011.48 1011.57 1011.65 1011.76 1011.91 1012.09 1012.30 1012.51 1012.69 1012.82 1012.89 1012.89 1012.82 1012.72 1012.61 1012.51 1012.45 1012.44 1012.46 1012.50 1012.53 1012.54 1012.51
1011.22 1011.10 1010.84 1010.47 1010.03 1009.54 1009.04 1008.54 1008.07 1007.65 1007.30 1007.05 1006.92 1006.92 1007.06 1007.33 1007.72 1008.19 1008.72 1009.26 1009.78 1010.25 1010.65 1010.96 1011.20 1011.38 1011.51 1011.63 1011.76 1011.91 1012.09 1012.29 1012.50 1012.69 1012.86 1012.97 1013.01 1013.00 1012.94 1012.85 1012.75 1012.68 1012.63 1012.61 1012.62 1012.64 1012.64 1012.62 1012.56
1011.13 1010.99 1010.73 1010.37 1009.94 1009.46 1008.94 1008.41 1007.89 1007.40 1006.99 1006.69 1006.54 1006.54 1006.72 1007.05 1007.51 1008.07 1008.66 1009.24 1009.79 1010.26 1010.64 1010.94 1011.17 1011.36 1011.52 1011.68 1011.85 1012.03 1012.24 1012.45 1012.65 1012.83 1012.96 1013.04 1013.07 1013.05 1013.00 1012.94 1012.87 1012.82 1012.80 1012.79 1012.79 1012.78 1012.76 1012.70 1012.61
1011.14 1011.02 1010.79 1010.48 1010.09 1009.63 1009.11 1008.54 1007.95 1007.39 1006.91 1006.55 1006.36 1006.37 1006.58 1006.97 1007.49 1008.11 1008.74 1009.34 1009.87 1010.32 1010.67 1010.93 1011.15 1011.33 1011.51 1011.70 1011.91 1012.13 1012.36 1012.57 1012.75 1012.90 1012.99 1013.04 1013.06 1013.04 1013.01 1012.98 1012.96 1012.94 1012.94 1012.94 1012.94 1012.91 1012.86 1012.77 1012.64
1011.19 1011.13 1010.99 1010.77 1010.45 1010.03 1009.50 1008.89 1008.23 1007.57 1007.00 1006.57 1006.34 1006.34 1006.57 1007.00 1007.58 1008.24 1008.89 1009.49 1010.00 1010.40 1010.70 1010.93 1011.11 1011.29 1011.49 1011.70 1011.95 1012.20 1012.43 1012.64 1012.80 1012.91 1012.97 1012.99 1012.98 1012.97 1012.97 1012.98 1013.00 1013.03 1013.05 1013.07 1013.06 1013.02 1012.94 1012.82 1012.66
1011.21 1011.27 1011.26 1011.17 1010.94 1010.57 1010.04 1009.38 1008.62 1007.85 1007.16 1006.64 1006.35 1006.32 1006.56 1007.02 1007.64 1008.33 1009.00 1009.60 1010.08 1010.44 1010.70 1010.89 1011.05 1011.23 1011.44 1011.69 1011.96 1012.23 1012.47 1012.67 1012.80 1012.87 1012.89 1012.88 1012.87 1012.87 1012.89 1012.93 1013.00 1013.07 1013.13 1013.16 1013.15 1013.10 1013.00 1012.86 1012.68
1011.12 1011.34 1011.51 1011.58 1011.47 1011.16 1010.62 1009.89 1009.01 1008.10 1007.27 1006.62 1006.24 1006.17 1006.40 1006.88 1007.53 1008.26 1008.95 1009.56 1010.03 1010.37 1010.61 1010.78 1010.94 1011.13 1011.36 1011.63 1011.93 1012.22 1012.46 1012.65 1012.75 1012.79 1012.78 1012.75 1012.73 1012.74 1012.79 1012.87 1012.98 1013.08 1013.17 1013.22 1013.21 1013.15 1013.04 1012.89 1012.70
1010.90 1011.31 1011.68 1011.92 1011.95 1011.70 1011.14 1010.32 1009.31 1008.23 1007.23 1006.43 1005.94 1005.79 1005.99 1006.48 1007.16 1007.93 1008.67 1009.30 1009.80 1010.16 1010.40 1010.59 1010.76 1010.97 1011.23 1011.54 1011.86 1012.16 1012.42 1012.59 1012.68 1012.70 1012.67 1012.62 1012.60 1012.62 1012.69 1012.80 1012.94 1013.08 1013.18 1013.24 1013.24 1013.18 1013.07 1012.92 1012.73
1010.52 1011.15 1011.74 1012.16 1012.31 1012.11 1011.53 1010.61 1009.44 1008.18 1006.99 1006.02 1005.39 1005.16 1005.31 1005.80 1006.51 1007.32 1008.12 1008.82 1009.37 1009.78 1010.07 1010.30 1010.52 1010.77 1011.07 1011.41 1011.76 1012.08 1012.34 1012.51 1012.60 1012.60 1012.56 1012.52 1012.50 1012.53 1012.62 1012.76 1012.91 1013.06 1013.18 1013.24 1013.24 1013.18 1013.07 1012.93 1012.77
1010.04 1010.89 1011.68 1012.28 1012.54 1012.38 1011.76 1010.73 1009.41 1007.96 1006.58 1005.44 1004.67 1004.33 1004.44 1004.91 1005.65 1006.51 1007.38 1008.16 1008.80 1009.29 1009.66 1009.96 1010.24 1010.55 1010.89 1011.26 1011.64 1011.98 1012.25 1012.42 1012.51 1012.52 1012.49 1012.45 1012.45 1012.49 1012.59 1012.74 1012.90 1013.05 1013.16 1013.21 1013.21 1013.14 1013.04 1012.91 1012.78
1009.54 1010.58 1011.56 1012.29 1012.64 1012.50 1011.84 1010.72 1009.26 1007.65 1006.11 1004.81 1003.91 1003.48 1003.53 1003.98 1004.73 1005.64 1006.58 1007.44 1008.17 1008.76 1009.23 1009.61 1009.97 1010.33 1010.72 1011.12 1011.52 1011.87 1012.15 1012.34 1012.43 1012.46 1012.44 1012.42 1012.43 1012.49 1012.60 1012.74 1012.89 1013.02 1013.11 1013.15 1013.13 1013.06 1012.96 1012.84 1012.73
1009.11 1010.30 1011.40 1012.24 1012.64 1012.51 1011.81 1010.62 1009.06 1007.34 1005.68 1004.27 1003.27 1002.76 1002.75 1003.17 1003.92 1004.86 1005.84 1006.78 1007.59 1008.28 1008.83 1009.31 1009.73 1010.15 1010.58 1011.01 1011.41 1011.77 1012.06 1012.25 1012.36 1012.40 1012.41 1012.41 1012.44 1012.51 1012.61 1012.74 1012.87 1012.97 1013.02 1013.03 1012.98 1012.89 1012.79 1012.68 1012.59
1008.81 1010.08 1011.24 1012.12 1012.54 1012.40 1011.69 1010.47 1008.88 1007.11 1005.40 1003.94 1002.89 1002.33 1002.27 1002.65 1003.37 1004.30 1005.30 1006.27 1007.14 1007.89 1008.53 1009.07 1009.56 1010.03 1010.49 1010.93 1011.33 1011.69 1011.96 1012.16 1012.28 1012.34 1012.36 1012.39 1012.43 1012.50 1012.60 1012.70 1012.80 1012.86 1012.87 1012.83 1012.75 1012.64 1012.52 1012.42 1012.33
1008.64 1009.92 1011.07 1011.93 1012.33 1012.19 1011.48 1010.28 1008.72 1007.00 1005.33 1003.89 1002.84 1002.26 1002.16 1002.49 1003.15 1004.03 1005.00 1005.96 1006.85 1007.64 1008.33 1008.93 1009.46 1009.96 1010.43 1010.87 1011.27 1011.60 1011.87 1012.05 1012.17 1012.24 1012.28 1012.32 1012.37 1012.44 1012.52 1012.60 1012.66 1012.67 1012.64 1012.55 1012.43 1012.30 1012.17 1012.05 1011.97
1008.56 1009.77 1010.85 1011.63 1011.98 1011.83 1011.16 1010.03 1008.59 1006.99 1005.45 1004.12 1003.13 1002.57 1002.44 1002.70 1003.28 1004.07 1004.96 1005.87 1006.73 1007.52 1008.22 1008.85 1009.41 1009.93 1010.41 1010.83 1011.21 1011.51 1011.74 1011.91 1012.01 1012.08 1012.13 1012.17 1012.23 1012.30 1012.36 1012.41 1012.43 1012.40 1012.32 1012.20 1012.05 1011.89 1011.74 1011.61 1011.52
1008.50 1009.57 1010.50 1011.17 1011.44 1011.28 1010.67 1009.69 1008.43 1007.04 1005.71 1004.55 1003.69 1003.18 1003.04 1003.24 1003.71 1004.37 1005.14 1005.95 1006.74 1007.49 1008.18 1008.81 1009.39 1009.92 1010.39 1010.79 1011.13 1011.40 1011.59 1011.72 1011.80 1011.85 1011.89 1011.94 1012.00 1012.05 1012.11 1012.14 1012.13 1012.07 1011.96 1011.81 1011.63 1011.45 1011.28 1011.15 1011.04
1008.35 1009.23 1009.97 1010.48 1010.67 1010.51 1010.00 1009.19 1008.18 1007.08 1006.02 1005.10 1004.41 1003.99 1003.85 1003.98 1004.33 1004.85 1005.47 1006.14 1006.84 1007.52 1008.18 1008.80 1009.38 1009.90 1010.36 1010.74 1011.04 1011.26 1011.41 1011.49 1011.54 1011.56 1011.59 1011.63 1011.68 1011.73 1011.77 1011.79 1011.76 1011.68 1011.56 1011.39 1011.20 1011.02 1010.85 1010.70 1010.59
1008.04 1008.70 1009.24 1009.58 1009.69 1009.54 1009.14 1008.55 1007.83 1007.05 1006.31 1005.66 1005.17 1004.87 1004.76 1004.83 1005.06 1005.42 1005.88 1006.41 1006.99 1007.59 1008.21 1008.81 1009.38 1009.89 1010.33 1010.69 1010.95 1011.12 1011.21 1011.24 1011.24 1011.24 1011.24 1011.26 1011.30 1011.35 1011.39 1011.40 1011.36 1011.28 1011.15 1010.98 1010.80 1010.62 1010.45 1010.30 1010.19
Thickness
5796 5795 5792 5783 5765 5746 5748 5761 5771 5776 5781 5790 5794 5790 5782 5776 5770 5767 5789 5797 5797 5794 5791 5787 5784 5782 5780 5778 5775 5773 5772 5770 5768 5766 5765 5763 5761 5759 5758 5758 5756 5754 5753 5753 5752 5751 5750 5750 5749
5796 5793 5786 5772 5751 5737 5747 5765 5771 5779 5788 5794 5794 5790 5783 5780 5785 5786 5790 5794 5794 5792 5789 5786 5782 5779 5777 5775 5773 5771 5769 5767 5765 5763 5761 5760 5758 5756 5755 5754 5753 5752 5750 5750 5749 5748 5748 5747 5746
5795 5792 5775 5759 5747 5741 5755 5772 5777 5787 5794 5793 5788 5788 5783 5780 5786 5787 5792 5793 5791 5788 5786 5783 5779 5776 5774 5772 5770 5768 5766 5764 5761 5759 5758 5756 5755 5753 5752 5751 5750 5749 5747 5747 5746 5746 5745 5744 5743
5790 5779 5768 5753 5751 5758 5766 5778 5784 5785 5790 5792 5787 5780 5784 5790 5790 5791 5793 5791 5787 5784 5782 5779 5776 5773 5771 5769 5767 5765 5763 5760 5758 5756 5755 5753 5752 5750 5749 5747 5747 5746 5745 5744 5743 5742 5742 5741 5740
5784 5768 5753 5742 5751 5765 5776 5784 5787 5782 5784 5787 5786 5777 5777 5789 5794 5793 5790 5787 5783 5780 5778 5775 5772 5770 5768 5766 5763 5761 5759 5757 5755 5753 5751 5750 5748 5747 5746 5744 5743 5743 5742 5741 5740 5739 5739 5738 5737
5768 5758 5739 5737 5751 5768 5779 5787 5787 5782 5783 5785 5783 5776 5776 5788 5789 5787 5786 5783 5781 5778 5775 5772 5769 5766 5764 5762 5760 5757 5755 5753 5751 5749 5748 5746 5745 5743 5742 5741 5740 5739 5738 5737 5737 5736 5735 5735 5734
5761 5749 5741 5746 5750 5762 5779 5788 5784 5781 5779 5783 5786 5773 5775 5782 5786 5785 5782 5779 5776 5774 5771 5768 5766 5763 5761 5758 5756 5754 5752 5750 5748 5746 5744 5743 5742 5740 5739 5738 5737 5736 5735 5734 5733 5732 5732 5731 5731
5767 5751 5746 5744 5750 5761 5780 5785 5787 5784 5781 5791 5789 5773 5770 5779 5783 5781 5777 5774 5771 5768 5767 5764 5762 5760 5758 5755 5753 5752 5750 5747 5745 5743 5741 5739 5737 5736 5735 5733 5733 5732 5731 5730 5729 5728 5728 5727 5727
5770 5744 5737 5748 5754 5765 5780 5779 5785 5792 5786 5785 5787 5784 5784 5784 5780 5774 5770 5766 5764 5763 5762 5761 5759 5757 5755 5753 5750 5748 5746 5744 5741 5739 5738 5736 5733 5731 5730 5729 5728 5727 5727 5726 5725 5724 5724 5723 5723
5758 5739 5749 5765 5770 5773 5777 5778 5781 5781 5776 5776 5779 5782 5783 5780 5774 5768 5764 5761 5759 5758 5758 5757 5755 5754 5752 5749 5747 5745 5742 5740 5738 5736 5734 5732 5729 5727 5726 5725 5724 5723 5722 5722 5721 5720 5719 5719 5718
5759 5752 5763 5773 5779 5779 5776 5777 5782 5776 5768 5774 5775 5776 5776 5774 5769 5765 5762 5761 5759 5757 5755 5754 5752 5750 5748 5746 5744 5740 5738 5736 5734 5732 5730 5728 5725 5724 5722 5720 5719 5718 5718 5717 5716 5715 5714 5714 5713
5759 5764 5770 5776 5782 5779 5776 5777 5776 5776 5778 5786 5785 5781 5775 5770 5766 5763 5760 5758 5757 5755 5754 5752 5750 5747 5745 5742 5740 5737 5734 5732 5729 5728 5726 5724 5721 5719 5718 5716 5714 5713 5712 5711 5710 5710 5709 5708 5708
5759 5765 5774 5779 5779 5779 5778 5774 5773 5775 5783 5786 5783 5778 5773 5770 5767 5764 5761 5757 5754 5752 5750 5749 5747 5745 5742 5739 5736 5733 5731 5728 5726 5724 5722 5719 5717 5715 5713 5711 5709 5708 5707 5706 5705 5704 5703 5703 5703
5762 5766 5771 5775 5777 5778 5772 5771 5770 5772 5780 5778 5775 5771 5769 5766 5763 5760 5756 5753 5751 5748 5746 5745 5743 5741 5738 5735 5732 5729 5727 5724 5722 5719 5717 5715 5713 5711 5708 5706 5704 5703 5702 5701 5700 5699 5698 5697 5697
5764 5760 5763 5769 5772 5773 5770 5759 5764 5772 5773 5770 5768 5767 5765 5762 5760 5756 5754 5751 5748 5745 5744 5741 5740 5737 5734 5731 5728 5726 5723 5720 5718 5715 5713 5711 5708 5706 5704 5702 5700 5698 5696 5695 5694 5693 5692 5691 5691
5756 5748 5742 5759 5766 5769 5760 5745 5764 5770 5767 5763 5762 5762 5760 5757 5756 5754 5751 5748 5746 5743 5740 5738 5737 5733 5730 5727 5724 5722 5719 5717 5714 5711 5708 5706 5704 5702 5700 5697 5695 5693 5692 5690 5689 5687 5686 5685 5684
5736 5730 5735 5748 5761 5762 5754 5746 5760 5766 5763 5758 5758 5757 5755 5752 5751 5750 5749 5746 5743 5740 5737 5735 5732 5729 5726 5724 5721 5718 5715 5712 5709 5706 5704 5702 5700 5697 5695 5693 5690 5688 5687 5685 5684 5682 5680 5679 5678
5725 5729 5733 5738 5752 5753 5746 5745 5756 5761 5760 5757 5756 5754 5752 5750 5749 5748 5746 5743 5740 5737 5735 5732 5729 5726 5723 5720 5716 5713 5710 5707 5705 5702 5700 5698 5696 5693 5691 5688 5686 5684 5682 5679 5678 5676 5675 5673 5672
5737 5733 5731 5740 5754 5747 5742 5743 5750 5756 5755 5753 5752 5750 5749 5748 5748 5746 5743 5740 5736 5733 5730 5727 5724 5721 5718 5715 5711 5707 5704 5702 5700 5698 5696 5694 5691 5689 5686 5684 5681 5678 5676 5674 5672 5670 5669 5667 5666
5734 5729 5729 5739 5750 5745 5738 5740 5750 5753 5753 5755 5752 5750 5748 5745 5743 5742 5740 5737 5733 5730 5728 5724 5721 5718 5714 5712 5709 5705 5701 5698 5696 5694 5692 5690 5688 5685 5682 5679 5676 5674 5671 5668 5666 5664 5662 5660 5659
5731 5728 5730 5731 5739 5742 5735 5732 5742 5749 5752 5753 5753 5751 5749 5746 5742 5740 5737 5734 5731 5728 5726 5723 5718 5715 5712 5709 5705 5701 5697 5694 5692 5690 5688 5686 5684 5681 5678 5675 5672 5669 5667 5664 5661 5660 5657 5654 5653
5725 5741 5739 5734 5723 5715 5725 5709 5732 5741 5742 5746 5747 5747 5747 5745 5742 5739 5736 5733 5729 5727 5725 5721 5716 5712 5708 5705 5701 5697 5693 5689 5687 5685 5683 5682 5679 5677 5674 5671 5668 5665 5662 5660 5657 5655 5653 5650 5648
5737 5745 5738 5731 5719 5711 5715 5707 5721 5735 5734 5740 5745 5747 5746 5744 5742 5738 5736 5733 5729 5725 5721 5717 5712 5708 5705 5701 5698 5694 5690 5687 5684 5682 5679 5677 5674 5672 5669 5667 5664 5661 5658 5655 5653 5651 5648 5646 5644
5745 5735 5726 5714 5706 5697 5710 5704 5711 5726 5735 5742 5745 5746 5744 5742 5740 5737 5734 5730 5725 5721 5717 5713 5709 5705 5701 5698 5695 5692 5688 5684 5680 5677 5675 5672 5669 5667 5665 5663 5660 5657 5654 5651 5649 5647 5644 5642 5640
5736 5714 5695 5692 5685 5691 5712 5706 5713 5737 5744 5744 5744 5744 5744 5742 5737 5734 5730 5726 5722 5718 5713 5709 5705 5701 5699 5696 5693 5690 5686 5682 5678 5675 5672 5668 5665 5662 5661 5658 5656 5653 5650 5648 5645 5643 5640 5638 5636
5727 5718 5695 5686 5683 5692 5705 5704 5723 5743 5746 5747 5745 5743 5741 5739 5736 5733 5730 5725 5721 5716 5711 5706 5702 5698 5695 5693 5690 5687 5683 5679 5675 5672 5669 5666 5662 5660 5658 5655 5652 5650 5647 5645 5642 5639 5637 5635 5633
5724 5715 5718 5699 5694 5687 5695 5710 5728 5741 5740 5740 5739 5738 5736 5736 5734 5731 5728 5723 5719 5714 5709 5705 5700 5696 5693 5690 5687 5684 5680 5676 5673 5670 5666 5663 5660 5657 5654 5651 5648 5646 5643 5641 5638 5635 5633 5631 5629
5733 5721 5704 5694 5683 5681 5693 5702 5710 5725 5729 5732 5732 5731 5731 5730 5729 5728 5724 5721 5717 5713 5708 5703 5698 5694 5691 5688 5684 5682 5678 5675 5671 5667 5663 5660 5657 5654 5651 5647 5645 5642 5640 5637 5635 5632 5630 5627 5626
5721 5714 5703 5692 5692 5683 5680 5698 5727 5727 5730 5729 5729 5728 5727 5725 5724 5723 5720 5717 5712 5708 5704 5699 5695 5691 5688 5685 5682 5678 5675 5672 5669 5665 5661 5658 5655 5651 5648 5645 5642 5640 5637 5634 5632 5629 5627 5625 5623
5727 5716 5703 5694 5689 5686 5683 5698 5731 5730 5729 5727 5726 5725 5724 5722 5720 5718 5715 5711 5707 5704 5700 5696 5692 5688 5685 5682 5679 5675 5672 5669 5666 5662 5659 5656 5652 5649 5646 5643 5640 5637 5634 5631 5629 5626 5624 5621 5619